Location: Heisede
(52.2582°N, 9.8523°E)
Time: 23:18:20
(UTC+00:00)

Cosmos 1709 Rocket - Pass Details

Date: 13 January 2026
Orbit: 948 x 1000 km, 82.9° (Epoch: 7 February)

Event Time Altitude Azimuth Distance (km) Brightness Sun altitude
Rises 05:17:49 0° 218° (SW) 3,610 6.7 -18.5°
Reaches altitude 10° 05:20:31 10° 227° (SW) 2,669 6.0 -18.1°
Maximum altitude 05:26:03 35° 293° (WNW) 1,484 4.4 -17.3°
Drops below altitude 10° 05:31:39 10° 358° (N) 2,696 6.2 -16.5°
Sets 05:34:25 0° 7° (N) 3,652 6.9 -16.1°
